FW7023 Weather Reports


Display with metric or nautical units.
time (UTC)temp
F
wind
direction
speed
MPH
gust
MPH
rain 1hr
in
rain 24hr
in
rain mn
in
humidity
%
barometer
mb
20230204053542 21 207 0.0 0.0 0.00 0.00 0.00 66 1025.0
20230204053043 21 206 0.0 0.0 0.00 0.00 0.00 65 1025.0
20230204052540 21 198 0.0 0.0 0.00 0.00 0.00 66 1025.0
20230204052040 21 198 0.0 0.0 0.00 0.00 0.00 66 1025.2
20230204051539 21 197 0.0 0.0 0.00 0.00 0.00 66 1025.3
20230204051039 21 197 0.0 0.0 0.00 0.00 0.00 65 1025.6
20230204050537 21 197 0.0 0.0 0.00 0.00 0.00 64 1025.5
20230204050036 21 197 0.0 0.0 0.00 0.00 0.00 64 1025.6
20230204045535 21 197 0.0 0.0 0.00 0.00 0.00 64 1025.3
20230204045035 21 197 0.0 0.0 0.00 0.00 0.00 63 1025.4
20230204044534 21 197 0.0 0.0 0.00 0.00 0.00 64 1025.7
20230204044033 21 197 0.0 0.0 0.00 0.00 0.00 64 1025.4
20230204043532 21 197 0.0 0.0 0.00 0.00 0.00 63 1025.7
20230204043032 21 197 0.0 0.0 0.00 0.00 0.00 63 1026.0
20230204042531 21 197 0.0 0.0 0.00 0.00 0.00 62 1025.8
20230204042029 21 196 0.0 0.0 0.00 0.00 0.00 62 1026.1
20230204041528 21 197 0.0 0.0 0.00 0.00 0.00 61 1026.2
20230204041028 21 197 0.0 0.0 0.00 0.00 0.00 61 1026.3
20230204040527 21 197 0.0 0.0 0.00 0.00 0.00 61 1026.1
20230204040027 21 197 0.0 0.0 0.00 0.00 0.00 61 1026.3
20230204035526 21 197 0.0 0.0 0.00 0.00 0.00 61 1026.3
20230204035025 22 197 0.0 0.0 0.00 0.00 0.00 60 1026.7
20230204034524 22 197 0.0 0.0 0.00 0.00 0.00 61 1026.9
20230204034023 22 197 0.0 0.0 0.00 0.00 0.00 60 1026.9
20230204033521 22 197 0.0 0.0 0.00 0.00 0.00 59 1026.6
20230204033021 22 197 0.0 0.0 0.00 0.00 0.00 59 1027.2
20230204032520 22 197 0.0 0.0 0.00 0.00 0.00 59 1027.3
20230204032019 22 197 0.0 0.0 0.00 0.00 0.00 58 1027.4
20230204031519 22 197 0.0 0.0 0.00 0.00 0.00 58 1027.6
20230204031017 22 197 0.0 0.0 0.00 0.00 0.00 59 1027.2
20230204030516 23 197 0.0 0.0 0.00 0.00 0.00 58 1027.6
20230204030014 23 197 0.0 0.0 0.00 0.00 0.00 57 1027.6
20230204025513 23 197 0.0 0.0 0.00 0.00 0.00 56 1027.6
20230204025013 23 197 0.0 0.0 0.00 0.00 0.00 54 1027.7
20230204024510 23 197 0.0 0.0 0.00 0.00 0.00 53 1027.8
20230204024010 23 197 0.0 0.0 0.00 0.00 0.00 52 1027.6
20230204023508 24 197 0.0 0.0 0.00 0.00 0.00 52 1027.7
20230204023007 24 197 0.0 1.0 0.00 0.00 0.00 53 1027.9
20230204022507 24 197 0.0 0.0 0.00 0.00 0.00 53 1027.8
20230204022006 24 197 0.0 0.0 0.00 0.00 0.00 54 1027.9
20230204021504 24 197 0.0 0.0 0.00 0.00 0.00 50 1028.0
20230204021003 24 197 0.0 1.0 0.00 0.00 0.00 51 1028.3
20230204020502 24 197 0.0 0.0 0.00 0.00 0.00 51 1028.4
20230204020002 24 197 1.0 1.0 0.00 0.00 0.00 50 1028.6
20230204015458 24 197 0.0 1.0 0.00 0.00 0.00 50 1028.4
20230204014958 25 197 1.0 1.0 0.00 0.00 0.00 51 1028.2
20230204014457 25 197 1.0 1.0 0.00 0.00 0.00 50 1028.3
20230204013957 25 197 1.0 1.0 0.00 0.00 0.00 50 1028.4
20230204013457 25 196 1.0 1.0 0.00 0.00 0.00 49 1028.3
20230204012957 25 197 1.0 1.0 0.00 0.00 0.00 49 1028.6
20230204012455 25 197 0.0 0.0 0.00 0.00 0.00 47 1028.2
20230204011954 25 197 1.0 1.0 0.00 0.00 0.00 48 1028.5
20230204011450 26 197 1.0 1.0 0.00 0.00 0.00 46 1028.6
20230204010948 26 197 1.0 1.0 0.00 0.00 0.00 48 1028.7
20230204010448 26 197 1.0 1.0 0.00 0.00 0.00 46 1028.6
20230204005947 26 197 1.0 1.0 0.00 0.00 0.00 45 1028.4
20230204005446 26 196 1.0 1.0 0.00 0.00 0.00 45 1028.5
20230204004946 26 196 1.0 1.0 0.00 0.00 0.00 44 1028.8
20230204004446 27 197 1.0 1.0 0.00 0.00 0.00 44 1028.6
20230204003945 27 198 0.0 0.0 0.00 0.00 0.00 44 1028.7
20230204003443 28 198 1.0 1.0 0.00 0.00 0.00 41 1028.8
20230204002942 28 198 0.0 0.0 0.00 0.00 0.00 40 1028.8
20230204002440 29 199 1.0 1.0 0.00 0.00 0.00 40 1028.8
20230204001938 30 201 0.0 1.0 0.00 0.00 0.00 36 1028.7
20230204001438 30 207 0.0 0.0 0.00 0.00 0.00 33 1028.5
20230204000936 31 205 0.0 1.0 0.00 0.00 0.00 32 1028.4
20230204000432 31 231 0.0 1.0 0.00 0.00 0.00 31 1028.8
20230203235930 32 214 0.0 0.0 0.00 0.00 0.00 31 1028.7
20230203235430 32 211 1.0 1.0 0.00 0.00 0.00 30 1028.7